Home   Weather   Cumberland County   Past weeks

Flag for Canada Past Weather in Cumberland County, Nova Scotia, Canada — Yesterday and Last 2 Weeks

Now
23 °F

Cold.


Feels Like: 23 °F
Forecast: 12 / 29 °F
Wind: 1 mph from Northeast

Location: Kentville

Current Time: Jan 19, 2017 at 5:09:35 am

Latest Report: Jan 19, 2017 at 4:00 am


Visibility: N/A

Pressure: 30.04 "Hg

Humidity: 82%

Dew Point: 18 °F

Location of Cumberland CountyLocation

Past Weather in Cumberland County — Graph

°F

Cumberland County Temperature Yesterday

Maximum temperature yesterday: 29 °F (at 3:00 pm)
Minimum temperature yesterday: 15 °F (at 4:00 am)
Average temperature yesterday: 21 °F

High & Low Weather Summary for the Past Weeks

 TemperatureHumidityPressure
High52 °F (Jan 12, 5:00 pm)100% (Jan 6, 3:00 pm)30.76 "Hg (Jan 6, 3:00 pm)
Low2 °F (Jan 9, 8:00 am)34% (Jan 13, 7:00 pm)29.22 "Hg (Jan 4, 1:00 pm)
Average25 °F77%30.13 "Hg
* Reported Jan 4 4:00 am — Jan 19 4:00 am, Cumberland County, Weather by CustomWeather, © 2017

Note: Actual official high and low records may vary slightly from our data, if they occured in-between our weather recording intervals... More about our weather records

Advertising

Cumberland County Weather History for the Previous 24 Hours

Scroll right to see more
 ConditionsComfort  
Time TempWeatherWind HumidityBarometerVisibility
4:00 am
Thu, Jan 19
23 °FCold.1 mph82%30.04 "HgN/A
3:00 am22 °FCold.2 mph82%30.06 "HgN/A
2:00 am22 °FCold.No wind83%30.09 "HgN/A
1:00 am21 °FCold.1 mph83%30.10 "HgN/A
12:00 am20 °FCold.1 mph87%30.10 "HgN/A
11:00 pm
Wed, Jan 18
19 °FCold.1 mph88%30.11 "HgN/A
10:00 pm18 °FCold.No wind88%30.14 "HgN/A
9:00 pm18 °FCold.No wind85%30.14 "HgN/A
8:00 pm19 °FCold.1 mph84%30.14 "HgN/A
7:00 pm19 °FCold.1 mph81%30.16 "HgN/A
6:00 pm22 °FCold.2 mph75%30.15 "HgN/A
5:00 pm25 °FChilly.2 mph61%30.16 "HgN/A
4:00 pm27 °FChilly.3 mph55%30.16 "HgN/A
3:00 pm29 °FChilly.3 mph50%30.16 "HgN/A
2:00 pm28 °FChilly.3 mph59%30.17 "HgN/A
1:00 pm26 °FChilly.6 mph58%30.20 "HgN/A
12:00 pm25 °FChilly.6 mph61%30.22 "HgN/A
11:00 am22 °FCold.6 mph68%30.26 "HgN/A
10:00 am19 °FCold.6 mph74%30.26 "HgN/A
9:00 am18 °FCold.5 mph76%30.28 "HgN/A
8:00 am18 °FCold.7 mph77%30.28 "HgN/A
7:00 am18 °FCold.6 mph76%30.27 "HgN/A
6:00 am18 °FCold.5 mph76%30.27 "HgN/A
Weather by CustomWeather, © 2017

See weather overviewHow to use our weather pages